Retour au catalogue

ONEWEB-0694

ActifCommunicationsPO
NORAD 56722·PAYLOAD·🇬🇧 United Kingdom

Lancé May 20, 2023 depuis Vandenberg Space Force Base

Loading…

Prochains Passages (prochaines 24 heures)

TLE

FraisSource: CelesTrak SupGP

Époque: Sep 14, 2026, 21:28 UTC

1 56722C 23068N   26257.89458750 -.00001268  00000+0 -33219-2 0  2574
2 56722  87.9145 210.9528 0001775  91.0004 305.7887 13.16595294    13

Suivez ONEWEB-0694 en temps réel avec AllMySat

Download on the App Store